GW1943 Weather Reports


time (UTC)temp
F
wind
direction
speed
knots
gust
knots
rain 1hr
in
rain 24hr
in
rain mn
in
humidity
%
barometer
mb
20260831071650 57 194 0.0 0.0 0.00 0.00 0.00 87 1017.6
20260831071145 57 194 0.0 0.0 0.00 0.00 0.00 86 1017.7
20260831070644 57 194 0.0 0.0 0.00 0.00 0.00 86 1018.1
20260831070134 57 194 0.0 0.0 0.00 0.00 0.00 85 1017.8
20260831065632 57 194 0.0 0.0 0.00 0.00 0.00 84 1018.0
20260831065131 58 194 0.0 0.0 0.00 0.00 0.00 84 1018.0
20260831064626 58 194 0.0 0.0 0.00 0.00 0.00 83 1017.8
20260831064122 59 194 0.0 0.0 0.00 0.00 0.00 82 1018.0
20260831063618 58 194 0.0 0.0 0.00 0.00 0.00 83 1018.1
20260831063112 58 194 0.0 0.0 0.00 0.00 0.00 82 1018.3
20260831062606 58 194 0.0 0.0 0.00 0.00 0.00 82 1018.2
20260831062101 58 194 0.0 0.0 0.00 0.00 0.00 81 1018.2
20260831061559 59 194 0.0 0.0 0.00 0.00 0.00 80 1018.3
20260831061055 59 194 0.0 0.0 0.00 0.00 0.00 80 1018.3
20260831060551 59 194 0.0 0.0 0.00 0.00 0.00 79 1018.3
20260831060045 58 194 0.0 0.0 0.00 0.00 0.00 81 1018.2
20260831055539 58 195 0.0 0.0 0.00 0.00 0.00 80 1018.1
20260831055035 58 195 0.0 0.0 0.00 0.00 0.00 81 1018.3
20260831054535 58 195 0.0 0.0 0.00 0.00 0.00 81 1018.5
20260831054034 58 195 0.0 0.0 0.00 0.00 0.00 80 1018.6
20260831053533 59 195 0.0 0.0 0.00 0.00 0.00 81 1018.8
20260831053028 59 195 0.0 0.0 0.00 0.00 0.00 79 1018.6
20260831052526 59 195 0.0 0.0 0.00 0.00 0.00 80 1018.8
20260831052027 59 195 0.0 0.0 0.00 0.00 0.00 79 1018.8
20260831051525 59 195 0.0 0.0 0.00 0.00 0.00 78 1018.8
20260831051024 59 195 0.0 0.0 0.00 0.00 0.00 78 1018.9
20260831050524 59 195 0.0 0.0 0.00 0.00 0.00 78 1018.8
20260831050022 60 195 0.0 0.0 0.00 0.00 0.00 78 1019.0
20260831045521 60 195 0.0 0.0 0.00 0.00 0.00 78 1018.9
20260831045017 60 195 0.0 0.0 0.00 0.00 0.00 78 1019.0
20260831044513 60 195 0.0 0.0 0.00 0.00 0.00 78 1019.0
20260831044008 60 195 0.0 0.0 0.00 0.00 0.00 77 1019.1
20260831043508 60 195 0.0 0.0 0.00 0.00 0.00 77 1019.0
20260831043003 60 195 0.0 0.0 0.00 0.00 0.00 77 1019.2
20260831042502 61 195 0.0 0.0 0.00 0.00 0.00 76 1019.1
20260831041957 61 195 0.0 0.0 0.00 0.00 0.00 75 1019.0
20260831041452 61 195 0.0 0.0 0.00 0.00 0.00 75 1018.9
20260831040952 62 195 0.0 0.0 0.00 0.00 0.00 74 1019.1
20260831040447 62 195 0.0 0.0 0.00 0.00 0.00 74 1019.0
20260831035944 62 195 0.0 0.0 0.00 0.00 0.00 73 1019.0
20260831035443 63 196 0.0 0.0 0.00 0.00 0.00 72 1018.9
20260831034939 63 196 0.0 0.0 0.00 0.00 0.00 71 1019.2
20260831034434 63 201 0.0 0.0 0.00 0.00 0.00 72 1018.9
20260831033929 63 203 0.0 0.0 0.00 0.00 0.00 71 1018.9
20260831033424 64 202 0.0 0.0 0.00 0.00 0.00 69 1019.0
20260831032919 64 200 0.0 0.0 0.00 0.00 0.00 70 1018.9
20260831032414 64 196 0.0 0.0 0.00 0.00 0.00 71 1018.9
20260831031909 63 199 0.0 0.0 0.00 0.00 0.00 73 1018.9
20260831031408 63 209 0.0 0.0 0.00 0.00 0.00 73 1018.7
20260831030903 63 209 0.0 0.0 0.00 0.00 0.00 74 1018.8
20260831030402 64 209 0.0 0.0 0.00 0.00 0.00 72 1018.8
20260831025901 64 209 0.0 0.0 0.00 0.00 0.00 72 1018.7
20260831025401 64 209 0.0 0.0 0.00 0.00 0.00 71 1018.9
20260831024856 65 209 0.0 0.0 0.00 0.00 0.00 70 1018.8
20260831024355 65 209 0.0 0.0 0.00 0.00 0.00 68 1018.8
20260831023855 66 209 0.0 0.0 0.00 0.00 0.00 67 1018.7
20260831023354 66 209 0.0 0.0 0.00 0.00 0.00 66 1018.6
20260831022849 68 209 0.0 0.0 0.00 0.00 0.00 65 1018.9
20260831022348 69 209 0.0 0.0 0.00 0.00 0.00 63 1018.8
20260831021842 69 209 0.0 0.0 0.00 0.00 0.00 61 1019.0
20260831021337 69 204 0.0 0.0 0.00 0.00 0.00 61 1019.3
20260831020833 69 205 0.0 0.9 0.00 0.00 0.00 60 1019.3
20260831020332 68 207 0.0 0.0 0.00 0.00 0.00 62 1019.1
20260831015828 68 258 0.9 0.9 0.00 0.00 0.00 60 1019.1
20260831015324 68 214 0.0 2.6 0.00 0.00 0.00 59 1019.2
20260831014823 68 215 0.9 1.7 0.00 0.00 0.00 59 1019.2
20260831014318 68 18 2.6 2.6 0.00 0.00 0.00 61 1019.1
20260831013814 69 200 0.0 0.9 0.00 0.00 0.00 62 1019.2
20260831013314 69 209 0.0 0.0 0.00 0.00 0.00 59 1019.1
20260831012808 69 207 0.0 0.0 0.00 0.00 0.00 59 1019.2
20260831012306 69 195 0.0 0.9 0.00 0.00 0.00 58 1019.2
20260831011803 69 99 0.0 1.7 0.00 0.00 0.00 56 1019.4
20260831011259 70 202 0.9 0.9 0.00 0.00 0.00 55 1019.4
20260831010754 71 220 0.0 0.9 0.00 0.00 0.00 54 1019.3
20260831010249 71 36 1.7 1.7 0.00 0.00 0.00 53 1019.4
20260831005745 72 67 0.9 1.7 0.00 0.00 0.00 51 1019.6
20260831005240 72 352 0.0 0.9 0.00 0.00 0.00 53 1019.5
20260831004735 72 24 1.7 2.6 0.00 0.00 0.00 51 1019.5
20260831004231 73 201 0.0 1.7 0.00 0.00 0.00 50 1019.6
20260831003726 73 224 0.0 0.9 0.00 0.00 0.00 54 1019.5
20260831003223 73 203 1.7 5.2 0.00 0.00 0.00 51 1019.8
20260831002721 74 219 0.0 1.7 0.00 0.00 0.00 52 1019.8
20260831002216 74 224 0.0 0.9 0.00 0.00 0.00 52 1019.5
20260831001712 73 214 0.0 0.9 0.00 0.00 0.00 55 1019.5
20260831001212 73 250 0.0 0.9 0.00 0.00 0.00 52 1019.8
20260831000709 74 219 0.0 0.9 0.00 0.00 0.00 55 1019.9
20260831000204 72 245 0.0 0.9 0.00 0.00 0.00 57 1019.9
20260830235703 72 301 0.0 0.0 0.00 0.00 0.00 55 1019.8
20260830235158 72 218 0.0 1.7 0.00 0.00 0.00 56 1019.9
20260830234652 72 215 0.0 1.7 0.00 0.00 0.00 56 1020.1
20260830234143 72 218 0.0 0.9 0.00 0.00 0.00 56 1019.9
20260830233638 75 217 0.0 1.7 0.00 0.00 0.00 51 1019.9
20260830233133 75 222 0.0 0.9 0.00 0.00 0.00 54 1020.0
20260830232629 74 214 0.0 1.7 0.00 0.00 0.00 52 1019.9
20260830232125 73 212 0.0 1.7 0.00 0.00 0.00 52 1020.0
20260830231621 73 232 0.9 0.9 0.00 0.00 0.00 51 1019.9
20260830231120 75 222 0.9 1.7 0.00 0.00 0.00 49 1020.0
20260830230615 75 210 0.0 1.7 0.00 0.00 0.00 50 1019.9
20260830230110 75 242 0.0 0.0 0.00 0.00 0.00 49 1020.0
20260830225605 76 231 0.0 0.0 0.00 0.00 0.00 48 1020.1
20260830225100 75 220 0.0 0.9 0.00 0.00 0.00 52 1020.0
20260830224558 73 17 0.9 1.7 0.00 0.00 0.00 50 1020.3
20260830224055 71 208 0.0 0.0 0.00 0.00 0.00 54 1020.3
20260830223551 73 223 0.0 0.9 0.00 0.00 0.00 55 1020.3
20260830223045 77 249 1.7 1.7 0.00 0.00 0.00 46 1020.5
20260830222540 77 220 0.9 0.9 0.00 0.00 0.00 48 1020.4
20260830222036 76 220 0.0 1.7 0.00 0.00 0.00 51 1020.5
20260830221532 77 218 0.0 1.7 0.00 0.00 0.00 50 1020.4
20260830221028 77 220 0.0 0.0 0.00 0.00 0.00 50 1020.5
20260830220527 76 223 0.9 0.9 0.00 0.00 0.00 48 1020.4
20260830220026 75 221 0.0 1.7 0.00 0.00 0.00 53 1020.6
20260830215520 76 228 0.9 1.7 0.00 0.00 0.00 50 1020.4
20260830215015 75 244 0.9 0.9 0.00 0.00 0.00 52 1020.5
20260830214510 73 220 0.0 0.9 0.00 0.00 0.00 53 1020.5
20260830214004 72 228 0.0 0.9 0.00 0.00 0.00 57 1020.7
20260830213459 72 231 1.7 1.7 0.00 0.00 0.00 53 1020.8
20260830212954 71 228 0.0 0.0 0.00 0.00 0.00 58 1020.7
20260830212449 71 252 1.7 1.7 0.00 0.00 0.00 57 1020.8
20260830211948 72 223 0.9 2.6 0.00 0.00 0.00 55 1021.2
20260830211438 71 213 0.0 1.7 0.00 0.00 0.00 54 1020.9
20260830210934 73 216 1.7 1.7 0.00 0.00 0.00 54 1021.2
20260830210433 73 219 0.9 2.6 0.00 0.00 0.00 52 1021.1
20260830205925 73 214 0.0 0.9 0.00 0.00 0.00 54 1021.2
20260830205424 74 238 1.7 1.7 0.00 0.00 0.00 53 1020.9
20260830204920 73 230 0.9 2.6 0.00 0.00 0.00 53 1021.1
20260830204419 73 238 0.0 1.7 0.00 0.00 0.00 55 1021.1
20260830203914 74 234 0.0 0.9 0.00 0.00 0.00 53 1021.1
20260830203411 72 236 0.0 0.9 0.00 0.00 0.00 56 1021.3
20260830202909 72 242 1.7 1.7 0.00 0.00 0.00 55 1021.1
20260830202405 71 225 0.9 1.7 0.00 0.00 0.00 59 1021.2
20260830201900 71 219 0.9 2.6 0.00 0.00 0.00 59 1021.4
20260830201354 72 217 0.0 1.7 0.00 0.00 0.00 59 1021.3
20260830200849 70 217 0.0 0.9 0.00 0.00 0.00 58 1021.6
20260830200349 71 232 0.9 4.3 0.00 0.00 0.00 57 1021.5
20260830195844 69 225 0.9 4.3 0.00 0.00 0.00 60 1021.5
20260830195343 68 206 2.6 2.6 0.00 0.00 0.00 62 1021.3
20260830194842 68 243 1.7 2.6 0.00 0.00 0.00 61 1021.6
20260830194336 68 250 2.6 4.3 0.00 0.00 0.00 62 1021.6
20260830193831 69 230 1.7 2.6 0.00 0.00 0.00 60 1021.4
20260830193325 68 210 0.9 0.9 0.00 0.00 0.00 67 1021.4
20260830192821 67 216 0.0 4.3 0.00 0.00 0.00 66 1021.3
20260830192320 66 217 0.9 1.7 0.00 0.00 0.00 68 1021.6
20260830191817 65 214 0.0 0.9 0.00 0.00 0.00 71 1021.4
20260830191310 64 217 0.0 0.0 0.00 0.00 0.00 71 1021.5
20260830190806 63 220 0.0 0.9 0.00 0.00 0.00 72 1021.6
20260830190301 63 219 0.0 0.9 0.00 0.00 0.00 74 1021.6
20260830185759 63 213 0.0 1.7 0.00 0.00 0.00 71 1021.8
20260830185255 64 214 0.0 0.9 0.00 0.00 0.00 72 1021.7
20260830184754 62 229 1.7 1.7 0.00 0.00 0.00 73 1021.7
20260830184254 62 283 1.7 2.6 0.00 0.00 0.00 74 1021.7
20260830183749 62 218 0.0 0.0 0.00 0.00 0.00 75 1021.7
20260830183244 63 209 0.9 1.7 0.00 0.00 0.00 73 1021.6
20260830182739 63 249 1.7 2.6 0.00 0.00 0.00 74 1021.5
20260830182235 62 224 0.0 0.0 0.00 0.00 0.00 75 1021.7
20260830181731 63 222 0.9 1.7 0.00 0.00 0.00 73 1021.6
20260830181226 62 209 0.9 1.7 0.00 0.00 0.00 72 1021.6
20260830180725 62 225 0.0 2.6 0.00 0.00 0.00 75 1021.8
20260830180219 62 227 2.6 2.6 0.00 0.00 0.00 75 1021.7
20260830175714 62 215 0.9 1.7 0.00 0.00 0.00 75 1021.6
20260830175209 62 211 0.0 0.9 0.00 0.00 0.00 75 1021.6
20260830174703 61 234 2.6 2.6 0.00 0.00 0.00 75 1021.6
20260830174159 61 227 0.9 2.6 0.00 0.00 0.00 75 1021.8
20260830173653 61 217 0.0 0.0 0.00 0.00 0.00 75 1021.8
20260830173148 62 217 0.0 0.0 0.00 0.00 0.00 75 1021.6
20260830172645 62 212 0.0 0.9 0.00 0.00 0.00 74 1021.9
20260830172142 62 206 0.0 0.9 0.00 0.00 0.00 74 1021.5
20260830171642 62 219 0.0 0.9 0.00 0.00 0.00 75 1021.8
20260830171137 61 229 0.0 0.9 0.00 0.00 0.00 75 1021.5
20260830170632 61 218 0.0 0.0 0.00 0.00 0.00 77 1021.4
20260830170131 61 222 1.7 2.6 0.00 0.00 0.00 76 1021.7
20260830165626 61 213 0.0 1.7 0.00 0.00 0.00 76 1021.5
20260830165121 60 218 0.0 0.0 0.00 0.00 0.00 77 1021.8
20260830164618 60 212 0.0 0.0 0.00 0.00 0.00 79 1021.5
20260830164113 60 216 0.9 1.7 0.00 0.00 0.00 78 1021.5
20260830163609 60 214 0.0 0.0 0.00 0.00 0.00 79 1021.7
20260830163104 59 205 0.0 0.9 0.00 0.00 0.00 78 1021.6
20260830162559 59 200 0.0 0.0 0.00 0.00 0.00 80 1021.7
20260830162054 59 220 0.0 0.9 0.00 0.00 0.00 81 1021.7
20260830161548 59 213 0.0 0.9 0.00 0.00 0.00 81 1021.8
20260830161044 59 223 0.0 0.9 0.00 0.00 0.00 81 1021.8
20260830160540 59 217 0.0 1.7 0.00 0.00 0.00 80 1021.8
20260830160035 59 216 0.9 1.7 0.00 0.00 0.00 81 1021.7
20260830155531 59 219 0.0 0.0 0.00 0.00 0.00 81 1021.6
20260830155026 58 218 0.9 0.9 0.00 0.00 0.00 81 1021.8
20260830154521 59 212 0.0 1.7 0.00 0.00 0.00 82 1021.7
20260830154018 58 211 0.9 0.9 0.00 0.00 0.00 82 1021.7
20260830153514 58 216 0.9 0.9 0.00 0.00 0.00 83 1021.7
20260830153013 58 214 0.0 2.6 0.00 0.00 0.00 83 1021.6
20260830152508 58 224 0.9 0.9 0.00 0.00 0.00 83 1021.6
20260830152007 58 216 0.0 0.0 0.00 0.00 0.00 84 1021.6
20260830151506 58 216 0.0 0.0 0.00 0.00 0.00 84 1021.5
20260830151001 57 216 0.0 0.9 0.00 0.00 0.00 85 1021.6
20260830150455 57 222 0.0 0.9 0.00 0.00 0.00 87 1021.5
20260830145950 57 203 0.0 0.0 0.00 0.00 0.00 88 1021.5
20260830145444 57 203 0.0 0.0 0.00 0.00 0.00 88 1021.6
20260830144940 56 201 0.0 0.0 0.00 0.00 0.00 89 1021.7
20260830144436 56 200 0.0 0.0 0.00 0.00 0.00 89 1021.5
20260830143931 56 200 0.0 0.0 0.00 0.00 0.00 90 1021.5
20260830143427 56 203 0.0 0.0 0.00 0.00 0.00 90 1021.4
20260830142925 56 203 0.0 0.0 0.00 0.00 0.00 91 1021.5
20260830142420 56 202 0.0 0.0 0.00 0.00 0.00 91 1021.4
20260830141914 56 202 0.0 0.0 0.00 0.00 0.00 91 1021.1
20260830141410 55 209 0.0 0.0 0.00 0.00 0.00 91 1021.2
20260830140905 55 209 0.0 0.0 0.00 0.00 0.00 91 1021.4
20260830140400 55 209 0.0 0.0 0.00 0.00 0.00 91 1021.2
20260830135859 55 209 0.0 0.0 0.00 0.00 0.00 91 1021.2
20260830135355 55 209 0.0 0.0 0.00 0.00 0.00 91 1021.1
20260830134850 55 209 0.0 0.0 0.00 0.00 0.00 91 1021.2
20260830134345 55 209 0.0 0.0 0.00 0.00 0.00 91 1021.1
20260830133841 55 209 0.0 0.0 0.00 0.00 0.00 91 1021.2
20260830133337 55 209 0.0 0.0 0.00 0.00 0.00 91 1021.1
20260830132832 55 209 0.0 0.0 0.00 0.00 0.00 91 1021.0
20260830132328 55 210 0.0 0.0 0.00 0.00 0.00 91 1021.1
20260830131827 55 211 0.0 0.0 0.00 0.00 0.00 91 1020.9
20260830131321 55 211 0.0 0.0 0.00 0.00 0.00 91 1021.0
20260830130816 55 211 0.0 0.0 0.00 0.00 0.00 91 1021.0
20260830130312 55 211 0.0 0.0 0.00 0.00 0.00 91 1021.1
20260830125811 55 200 0.0 0.0 0.00 0.00 0.00 90 1021.0
20260830125307 55 200 0.0 0.0 0.00 0.00 0.00 90 1021.2
20260830124804 55 198 0.0 0.0 0.00 0.00 0.00 90 1021.1
20260830124259 55 197 0.0 0.0 0.00 0.00 0.00 90 1021.0
20260830123756 56 198 0.0 0.0 0.00 0.00 0.00 90 1021.0
20260830123252 56 198 0.0 0.0 0.00 0.00 0.00 90 1021.0
20260830122749 56 198 0.0 0.0 0.00 0.00 0.00 90 1021.2
20260830122244 55 198 0.0 0.0 0.00 0.00 0.00 90 1021.2
20260830121740 55 198 0.0 0.0 0.00 0.00 0.00 90 1021.1
20260830121238 56 198 0.0 0.0 0.00 0.00 0.00 90 1021.1
20260830120734 56 198 0.0 0.0 0.00 0.00 0.00 90 1021.0
20260830120230 56 198 0.0 0.0 0.00 0.00 0.00 90 1021.1
20260830115726 56 198 0.0 0.0 0.00 0.00 0.00 90 1021.2
20260830115226 56 198 0.0 0.0 0.00 0.00 0.00 90 1021.1
20260830114723 56 198 0.0 0.0 0.00 0.00 0.00 90 1021.2
20260830114218 55 198 0.0 0.0 0.00 0.00 0.00 90 1021.2
20260830113713 55 198 0.0 0.0 0.00 0.00 0.00 90 1021.1
20260830113208 55 198 0.0 0.0 0.00 0.00 0.00 91 1021.2
20260830112704 55 198 0.0 0.0 0.00 0.00 0.00 90 1021.1
20260830112200 55 198 0.0 0.0 0.00 0.00 0.00 90 1021.1
20260830111655 55 198 0.0 0.0 0.00 0.00 0.00 90 1021.0
20260830111151 56 198 0.0 0.0 0.00 0.00 0.00 90 1021.1
20260830110645 56 198 0.0 0.0 0.00 0.00 0.00 89 1020.9
20260830110141 56 198 0.0 0.0 0.00 0.00 0.00 89 1021.2
20260830105636 56 196 0.0 0.0 0.00 0.00 0.00 89 1021.0
20260830105132 56 201 0.0 0.0 0.00 0.00 0.00 89 1021.0
20260830104629 56 201 0.0 0.0 0.00 0.00 0.00 89 1021.1
20260830104125 56 201 0.0 0.0 0.00 0.00 0.00 89 1021.2
20260830103624 56 201 0.0 0.0 0.00 0.00 0.00 89 1021.1
20260830103119 56 201 0.0 0.0 0.00 0.00 0.00 88 1021.2
20260830102618 56 201 0.0 0.0 0.00 0.00 0.00 88 1021.2
20260830102114 56 203 0.0 0.0 0.00 0.00 0.00 88 1021.0
20260830101609 56 208 0.0 0.0 0.00 0.00 0.00 88 1021.2
20260830101109 56 198 0.0 0.0 0.00 0.00 0.00 88 1021.0
20260830100608 56 198 0.0 0.0 0.00 0.00 0.00 88 1021.1
20260830095602 56 199 0.0 0.0 0.00 0.00 0.00 88 1020.9
20260830095059 56 206 0.0 0.9 0.00 0.00 0.00 88 1021.0
20260830094555 56 198 0.0 0.0 0.00 0.00 0.00 88 1020.9
20260830094050 56 198 0.0 0.0 0.00 0.00 0.00 88 1020.8
20260830093545 56 198 0.0 0.0 0.00 0.00 0.00 87 1020.7
20260830093042 56 196 0.0 0.0 0.00 0.00 0.00 87 1020.7
20260830092536 56 196 0.0 0.0 0.00 0.00 0.00 87 1020.9
20260830092033 57 196 0.0 0.0 0.00 0.00 0.00 87 1021.1
20260830091527 56 197 0.0 0.0 0.00 0.00 0.00 87 1020.8
20260830091026 56 206 0.0 0.0 0.00 0.00 0.00 87 1021.0
20260830090521 57 204 0.0 0.9 0.00 0.00 0.00 87 1021.1
20260830090017 57 196 0.0 0.9 0.00 0.00 0.00 86 1021.2
20260830085512 57 196 0.0 0.0 0.00 0.00 0.00 86 1021.0
20260830085008 57 200 0.0 0.0 0.00 0.00 0.00 86 1021.2
20260830084503 57 209 0.0 0.0 0.00 0.00 0.00 86 1021.1
20260830083958 57 199 0.0 0.0 0.00 0.00 0.00 86 1020.9
20260830083454 56 197 0.0 0.0 0.00 0.00 0.00 86 1021.0
20260830082953 56 198 0.0 0.0 0.00 0.00 0.00 87 1020.9
20260830082449 56 206 0.0 0.0 0.00 0.00 0.00 86 1021.1
20260830081949 57 201 0.0 0.0 0.00 0.00 0.00 86 1020.9
20260830081444 57 212 0.0 0.0 0.00 0.00 0.00 85 1020.8
20260830080943 57 171 0.0 0.0 0.00 0.00 0.00 85 1021.0
20260830080440 57 198 0.0 0.0 0.00 0.00 0.00 86 1020.8
20260830075939 57 216 0.0 0.0 0.00 0.00 0.00 86 1020.9
20260830075434 57 216 0.0 0.0 0.00 0.00 0.00 86 1020.7
20260830074930 57 216 0.0 0.0 0.00 0.00 0.00 86 1020.7
20260830074426 57 216 0.0 0.0 0.00 0.00 0.00 85 1020.7
20260830073921 57 215 0.0 0.9 0.00 0.00 0.00 85 1020.7
20260830073417 57 212 0.0 0.0 0.00 0.00 0.00 84 1020.8
20260830072912 57 210 0.0 0.0 0.00 0.00 0.00 84 1020.5
20260830072408 58 210 0.0 0.0 0.00 0.00 0.00 84 1020.8